This is the latest recevied weather packets stored in our database for station/object KK4WXG. If no packets are shown the sender has not sent any weather packets the latest 10 day(s).
| Time | Temp. | Humidity | Pressure | Rain* | Wind** | Luminosity | Snow |
|---|---|---|---|---|---|---|---|
| 1777737325 | 13.89° C | 47% | 1014 hPa | 0 mm | - | 1036 W/m² | - |
| 1777737021 | 13.89° C | 47% | 1014 hPa | 0 mm | - | 914 W/m² | - |
| 1777736717 | 12.78° C | 45% | 1014.2 hPa | 0 mm | - | 1013 W/m² | - |
| 1777736078 | 12.78° C | 48% | 1014.1 hPa | 0 mm | - | 971 W/m² | - |
| 1777735774 | 12.78° C | 46% | 1014.1 hPa | 0 mm | - | 1030 W/m² | - |
| 1777735472 | 13.33° C | 51% | 1014.2 hPa | 0 mm | - | 879 W/m² | - |
| 1777735170 | 12.78° C | 53% | 1014.4 hPa | 0 mm | - | 929 W/m² | - |
| 1777734866 | 12.22° C | 53% | 1014.3 hPa | 0 mm | - | 900 W/m² | - |
| 1777734564 | 12.78° C | 51% | 1014.3 hPa | 0 mm | - | 898 W/m² | - |
| 1777734260 | 12.22° C | 52% | 1014.2 hPa | 0 mm | - | 887 W/m² | - |
| 1777733957 | 12.22° C | 51% | 1014.4 hPa | 0 mm | - | 877 W/m² | - |
| 1777733653 | 12.22° C | 52% | 1014.3 hPa | 0 mm | - | 830 W/m² | - |
| 1777733350 | 11.67° C | 52% | 1014.2 hPa | 0 mm | - | 764 W/m² | - |
| 1777733047 | 11.67° C | 55% | 1014.3 hPa | 0 mm | - | 671 W/m² | - |
| 1777732743 | 11.67° C | 52% | 1014.3 hPa | 0 mm | - | 633 W/m² | - |
| 1777732440 | 11.11° C | 54% | 1014.3 hPa | 0 mm | - | 695 W/m² | - |
| 1777732138 | 11.67° C | 54% | 1014.3 hPa | 0 mm | - | 655 W/m² | - |
| 1777731834 | 11.67° C | 52% | 1014 hPa | 0 mm | - | 591 W/m² | - |
| 1777731531 | 11.11° C | 57% | 1014.2 hPa | 0 mm | - | 645 W/m² | - |
| 1777731229 | 11.11° C | 54% | 1013.9 hPa | 0 mm | - | 809 W/m² | - |
| 1777730926 | 11.11° C | 55% | 1014 hPa | 0 mm | - | 638 W/m² | - |
| 1777730624 | 10.56° C | 60% | 1014.1 hPa | 0 mm | - | 503 W/m² | - |
| 1777730320 | 10.56° C | 58% | 1014.1 hPa | 0 mm | - | 737 W/m² | - |
| 1777730017 | 10.56° C | 58% | 1014 hPa | 0 mm | - | 576 W/m² | - |
| 1777729713 | 11.67° C | 55% | 1014.3 hPa | 0 mm | - | 711 W/m² | - |
* Rain latest hour (hover to see other rain measurements)
** Current wind speed in m/s (hover to see current wind gust speed)